www.pogodaiklimat.ru

Погода и климат >> Архив погоды >> Швейцария >> Майринген


ПОГОДА в Майрингене

  • Прогноз погоды в Майрингене
  • Монитор погоды в Майрингене

АРХИВ ПОГОДЫ в Майрингене

Время (UTC), дата Ветер
(напр.,м/с)
 
Видим.   Явления Облачность Т
(С)
Тd
(С)
f
(%)
Тe
(С)
Тes
(С)
Комфортность P
(гПа)
Po
(гПа)
Тmin
(С)
Tmax
(С)
R
(мм)
R24
(мм)
S
(см)
13 13.07 СЗ 5
{14}
н/о н/о +21.5 +11.9 54 +24 +24 комфорт 1015.1 948.8
14 13.07 СЗ 7
{12}
н/о н/о +21.4 +11.5 53 +23 +23 комфорт 1015.1 948.8
15 13.07 СЗ 5
{14}
н/о н/о +22.0 +10.6 48 +24 +24 комфорт 1014.8 948.7
16 13.07 СЗ 9
{16}
н/о н/о +20.4 +10.1 52 +21 +21 комфорт 1015.1 948.6
17 13.07 С 7
{13}
н/о н/о +20.3 +8.8 48 +21 +21 комфорт 1015.3 948.7
18 13.07 СЗ 5
{16}
15 км 8/8 1500 м
[]
+19.5 +9.7 53 +20 +20 1015.7 948.9 +22.0
19 13.07 СЗ 4
{11}
н/о н/о +18.9 +9.9 56 +19 +19 1016.1 949.2
20 13.07 СЗ 4
{9}
н/о н/о +18.6 +9.8 57 +19 +19 1016.7 949.7
21 13.07 СЗ 4
{11}
15 км 10/10 1500 м
[]
+18.5 +9.8 57 +19 +19 1016.9 949.8
22 13.07 СЗ 2
{6}
н/о н/о +17.4 +10.6 64 +18 +18 1017.0 949.7
23 13.07 В 1
{4}
н/о н/о +17.2 +10.5 65 +18 +18 1017.0 949.6
00 14.07 В 2
{11}
15 км 6/6 1500 м
[]
+14.6 +11.0 79 +15 +15 1017.2 949.2
01 14.07 ЮВ 2
{2}
н/о н/о +14.1 +10.4 78 +14 +14 1016.9 948.8
02 14.07 ЮВ 1
{2}
н/о н/о +12.6 +10.0 84 +13 +13 1016.9 948.4
03 14.07 ЮВ 1
{2}
н/о н/о +13.2 +9.6 79 +13 +13 1016.5 948.2
04 14.07 ЮВ 1
{2}
н/о н/о +12.7 +9.4 80 +14 +14 1016.3 947.9
05 14.07 Ю 1
{2}
н/о н/о +11.9 +9.6 86 +12 +12 1016.5 947.9
06 14.07 В 1
{2}
15 км ясно +13.4 +10.1 80 +14 +18 1015.8 947.6 +11.1
07 14.07 В 1
{2}
н/о н/о +16.3 +10.1 67 +17 +17 1014.7 947.3
08 14.07 В 1
{2}
н/о н/о +18.3 +10.9 62 +20 +20 1013.9 947.0
09 14.07 З 4
{6}
20 км ясно +20.8 +11.2 54 +23 +33 комфорт 1012.8 946.5
10 14.07 С 3
{9}
н/о н/о +21.6 +10.7 50 +23 +23 комфорт 1011.9 945.9
11 14.07 СЗ 6
{9}
н/о н/о +22.3 +12.8 55 +25 +25 комфорт 1011.4 945.6
12 14.07 С 7
{13}
35 км 5/5 1500 м
[]
+21.9 +10.9 50 +24 +26 комфорт 1011.0 945.1
13 14.07 СЗ 8
{13}
н/о н/о +21.0 +9.8 49 +22 +22 комфорт 1010.9 944.8
14 14.07 СЗ 6
{13}
н/о н/о +21.1 +10.4 50 +23 +23 комфорт 1010.6 944.5
15 14.07 ЮЗ 5
{13}
15 км дождь 9/9 1500 м
[]
+16.8 +13.0 78 +16 +17 1011.9 944.8 2
16 14.07 ЮВ 3
{9}
н/о н/о +15.7 +14.5 93 +15 +15 1012.6 945.2 6
17 14.07 ЮЗ 1
{5}
н/о н/о +15.2 +14.6 96 +16 +16 1013.3 945.7 3
18 14.07 Ю 1
{13}
12 км дождь 10/10 720 м
[]
+15.0 +14.6 97 +15 +15 1013.6 945.9 +22.4 0.5
19 14.07 С 2
{2}
н/о н/о +15.0 +14.4 96 +15 +15 1014.1 946.4 2
20 14.07 ЮВ 1
{2}
н/о н/о +14.6 +14.0 96 +15 +15 1014.9 947.0 0.3
21 14.07 В 1
{6}
12 км в посл. час дождь 10/10 330 м
[]
+14.6 +12.8 89 +15 +15 1014.8 946.9
22 14.07 СВ 3
{8}
н/о н/о +14.1 +13.1 94 +13 +13 1014.8 946.8
23 14.07 С 1
{5}
н/о н/о +14.7 +11.3 80 +15 +15 1014.2 946.4
00 15.07 Ю 3
{8}
15 км в посл. час дождь {ливн. осадки} 10/10 420 м
[]
+13.6 +12.4 92 +13 +13 1014.0 946.0
01 15.07 З 4
{7}
н/о н/о +14.4 +11.2 81 +13 +13 1013.4 945.6
02 15.07 З 5
{9}
н/о н/о +13.4 +11.4 88 +11 +11 1013.6 945.5
03 15.07 СЗ 2
{9}
н/о н/о +12.9 +11.8 93 +12 +12 1013.4 945.2 0.1
04 15.07 СЗ 3
{7}
н/о н/о +13.0 +11.5 91 +12 +12 1013.7 945.5 0.1
05 15.07 С 2
{7}
н/о н/о +12.6 +11.7 94 +12 +12 1014.0 945.7 0.2
06 15.07 С 3
{9}
н/о н/о +12.5 +11.4 93 +11 +11 1014.2 945.9 +12.4 0.2
07 15.07 СЗ 2
{3}
н/о н/о +12.8 +11.5 92 +12 +12 1014.6 946.3
08 15.07 СЗ 3
{4}
н/о н/о +13.1 +11.3 89 +12 +12 1015.0 946.8
09 15.07 ЮЗ 1
{4}
н/о н/о +14.2 +12.0 87 +14 +14 1014.7 946.8
10 15.07 СЗ 2
{7}
н/о н/о +14.3 +11.5 83 +14 +14 1015.3 947.3
11 15.07 З 1
{4}
н/о н/о +14.8 +12.5 86 +15 +15 1015.0 947.2
12 15.07 З 4
{8}
н/о н/о +15.4 +11.8 79 +14 +14 1014.8 947.1
13 15.07 СЗ 3
{8}
н/о н/о +15.8 +12.5 81 +15 +15 1015.0 947.4
14 15.07 С 3
{6}
н/о н/о +15.8 +12.6 81 +15 +15 1015.3 947.7
15 15.07 СЗ 3
{8}
н/о н/о +15.7 +12.3 80 +15 +15 1015.5 947.9
16 15.07 СЗ 2
{4}
н/о н/о +15.9 +12.2 79 +16 +16 1015.7 948.1
17 15.07 З 1
{3}
н/о н/о +16.2 +12.2 77 +18 +18 1015.7 948.2
18 15.07 ЮЗ 1
{8}
15 км 6/0 2000 м
[]
+16.4 +12.2 76 +18 +18 1015.9 948.4 +16.4
19 15.07 ЮЗ 1
{2}
н/о н/о +15.4 +13.5 88 +17 +17 1016.4 948.6
20 15.07 штиль 0
{2}
н/о н/о +14.7 +13.0 90 +14 +14 1017.1 949.1
21 15.07 штиль 0
{2}
н/о н/о +14.2 +13.0 92 +14 +14 1017.6 949.5
22 15.07 Ю 1
{2}
н/о н/о +13.6 +12.5 93 +14 +14 1017.9 949.6
23 15.07 Ю 1
{2}
н/о н/о +12.6 +12.0 96 +12 +12 1018.2 949.6
00 16.07 С 1
{2}
н/о н/о +12.5 +11.9 96 +13 +13 1018.3 949.7
01 16.07 В 1
{2}
н/о н/о +11.3 +11.1 99 +11 +11 1018.7 949.8
02 16.07 ЮВ 1
{2}
н/о н/о +11.8 +11.5 98 +11 +11 1018.7 949.9
03 16.07 штиль 0
{2}
н/о н/о +11.5 +11.1 97 +11 +11 1018.7 949.8
04 16.07 В 1
{1}
н/о н/о +10.3 +10.2 99 +11 +11 1018.9 949.7
05 16.07 В 1
{1}
н/о н/о +10.8 +10.3 97 +11 +11 1018.9 949.9
06 16.07 штиль 0
{2}
25 км ясно +12.6 +11.7 94 +12 +16 1018.6 950.0 +10.2
07 16.07 ЮВ 1
{2}
н/о н/о +15.6 +12.4 81 +17 +17 1017.7 949.9
08 16.07 СЗ 1
{2}
н/о н/о +17.6 +12.3 71 +19 +19 1016.8 949.5
09 16.07 СЗ 1
{3}
н/о н/о +19.5 +11.6 60 +22 +22 комфорт 1016.0 949.2
10 16.07 СЗ 5
{7}
н/о н/о +21.0 +13.8 63 +24 +24 комфорт 1015.4 949.0
11 16.07 З 4
{8}
н/о н/о +22.2 +12.2 53 +25 +25 комфорт 1014.9 948.8
12 16.07 З 6
{9}
35 км 4/4 1500 м
[]
+23.4 +12.4 50 +26 +31 жарко 1014.1 948.3
13 16.07 З 4
{9}
н/о н/о +24.9 +14.0 51 +27 +27 жарко 1013.3 947.9
14 16.07 СЗ 4
{9}
н/о н/о +25.1 +11.4 42 +26 +26 жарко 1012.9 947.6
15 16.07 СЗ 4
{9}
н/о н/о +25.4 +11.8 43 +27 +27 жарко 1012.8 947.6
16 16.07 З 4
{7}
н/о н/о +25.4 +11.5 42 +27 +27 жарко 1012.6 947.4
17 16.07 СЗ 4
{7}
н/о н/о +24.4 +12.9 49 +26 +26 жарко 1012.9 947.4
18 16.07 СЗ 4
{9}
н/о н/о +23.3 +12.0 49 +26 +26 жарко 1013.3 947.6 +25.8
19 16.07 З 2
{5}
н/о н/о +21.9 +12.0 53 +24 +24 комфорт 1014.0 947.9
20 16.07 В 1
{2}
н/о н/о +19.6 +13.9 70 +23 +23 комфорт 1014.9 948.2
21 16.07 СЗ 1
{5}
н/о н/о +18.0 +13.5 75 +20 +20 1015.6 948.5
22 16.07 штиль 0
{2}
н/о н/о +18.1 +13.4 74 +18 +18 1015.7 948.6
23 16.07 Ю 1
{2}
н/о н/о +16.2 +13.1 82 +18 +18 1016.4 948.8
00 17.07 СЗ 1
{5}
15 км 1/1 1320 м
[]
+14.0 +12.4 90 +15 +15 1016.8 948.7
01 17.07 СЗ 1
{1}
н/о н/о +13.8 +12.2 90 +15 +15 1017.0 948.8
02 17.07 ЮВ 1
{2}
н/о н/о +13.8 +12.1 89 +14 +14 1016.6 948.4
03 17.07 штиль 0
{2}
н/о н/о +13.3 +11.7 90 +13 +13 1016.6 948.3
04 17.07 ЮВ 1
{1}
н/о н/о +11.8 +10.9 94 +12 +12 1016.9 948.2
05 17.07 З 1
{2}
н/о н/о +11.9 +11.0 94 +13 +13 1016.4 947.8
06 17.07 СВ 1
{2}
н/о н/о +14.4 +12.7 90 +15 +15 1015.8 947.8 +11.4
07 17.07 ЮВ 1
{1}
н/о н/о +17.6 +12.9 74 +19 +19 1014.6 947.5
08 17.07 СЗ 1
{2}
н/о н/о +19.8 +12.8 64 +23 +23 комфорт 1013.8 947.2
09 17.07 СЗ 3
{5}
н/о н/о +21.7 +13.7 60 +24 +24 комфорт 1013.2 947.1
10 17.07 СЗ 4
{7}
н/о н/о +23.0 +12.9 53 +26 +26 жарко 1012.7 946.9
11 17.07 З 4
{7}
н/о н/о +24.0 +11.2 45 +25 +25 комфорт 1012.1 946.6
12 17.07 З 3
{7}
н/о н/о +23.7 +12.1 48 +25 +25 комфорт 1011.6 946.1
13 17.07 З 4
{6}
н/о н/о +24.0 +12.4 48 +26 +26 жарко 1011.1 945.7
14 17.07 З 4
{6}
н/о н/о +24.2 +12.2 47 +26 +26 жарко 1011.0 945.6
15 17.07 З 2
{6}
н/о н/о +24.0 +14.5 55 +27 +27 жарко 1010.8 945.4
16 17.07 З 2
{4}
н/о н/о +23.2 +14.5 58 +27 +27 душно 1010.7 945.1
17 17.07 З 1
{3}
н/о н/о +22.9 +14.9 61 +27 +27 душно 1010.5 944.9
18 17.07 Ю 1
{6}
15 км 8/8 1500 м
[]
+22.5 +15.5 65 +26 +27 жарко 1010.8 945.0 +24.9
19 17.07 ЮВ 1
{2}
н/о н/о +21.2 +15.0 68 +24 +24 комфорт 1011.2 945.1
20 17.07 Ю 1
{2}
н/о н/о +19.8 +14.5 71 +23 +23 комфорт 1011.9 945.5
21 17.07 В 1
{2}
н/о н/о +19.2 +14.4 74 +22 +22 комфорт 1012.3 945.7
22 17.07 С 2
{4}
н/о н/о +19.4 +13.3 68 +21 +21 комфорт 1012.8 946.2
23 17.07 ЮВ 1
{2}
н/о н/о +17.3 +13.8 80 +18 +18 1013.5 946.4
00 18.07 ЮВ 2
{4}
н/о н/о +16.3 +12.9 80 +17 +17 1013.8 946.4
01 18.07 штиль 0
{2}
н/о н/о +14.7 +12.9 89 +14 +14 1014.2 946.4
02 18.07 штиль 0
{1}
н/о н/о +15.3 +12.6 84 +15 +15 1013.9 946.3
03 18.07 С 1
{2}
н/о н/о +15.0 +12.6 86 +16 +16 1014.1 946.4
04 18.07 З 1
{2}
н/о н/о +13.8 +12.3 91 +14 +14 1014.7 946.7
05 18.07 штиль 0
{1}
н/о н/о +14.6 +12.6 88 +14 +14 1014.6 946.8
06 18.07 В 1
{2}
н/о н/о +15.2 +12.9 86 +16 +16 1014.9 947.2 +13.8
07 18.07 СЗ 1
{1}
н/о н/о +16.6 +12.8 78 +18 +18 1014.7 947.3
08 18.07 СЗ 1
{2}
н/о н/о +18.9 +11.9 64 +21 +21 комфорт 1014.1 947.3
09 18.07 СЗ 1
{2}
н/о н/о +20.1 +11.5 58 +23 +23 комфорт 1013.7 947.2
10 18.07 З 1
{3}
н/о н/о +22.9 +11.3 48 +25 +25 комфорт 1012.8 947.0
11 18.07 СЗ 3
{4}
н/о н/о +23.9 +9.4 40 +25 +25 комфорт 1012.2 946.7
12 18.07 СЗ 4
{6}
н/о н/о +25.6 +9.6 36 +26 +35 жарко 1011.3 946.2
13 18.07 З 4
{7}
н/о н/о +26.1 +9.9 36 +27 +27 жарко 1011.0 946.0
14 18.07 З 3
{6}
н/о н/о +25.4 +9.0 35 +26 +26 жарко 1010.9 945.8
15 18.07 З 3
{7}
н/о н/о +26.5 +11.3 39 +28 +28 жарко 1010.3 945.5
16 18.07 З 3
{6}
н/о н/о +26.1 +10.2 37 +27 +27 жарко 1010.3 945.4
17 18.07 С 6
{9}
н/о н/о +25.3 +8.7 35 +26 +26 жарко 1010.8 945.7
18 18.07 З 3
{9}
18 км 4/4 1500 м
[]
+22.7 +11.0 48 +25 +25 комфорт 1011.9 946.1 +26.6
19 18.07 З 1
{5}
н/о н/о +21.6 +10.0 48 +23 +23 комфорт 1012.8 946.7
20 18.07 В 1
{3}
н/о н/о +18.5 +11.8 65 +21 +21 комфорт 1014.5 947.6
21 18.07 В 1
{5}
40 км ясно +18.1 +11.3 64 +20 +20 1015.3 948.2
22 18.07 В 2
{4}
н/о н/о +18.6 +10.6 60 +20 +20 1015.2 948.3
23 18.07 Ю 1
{4}
н/о н/о +18.2 +10.5 61 +20 +20 1015.5 948.4
00 19.07 СЗ 2
{5}
18 км 5/5 1320 м
[]
+16.2 +11.2 72 +17 +17 1016.5 948.9
01 19.07 В 1
{2}
н/о н/о +15.6 +11.4 76 +17 +17 1016.7 949.0
02 19.07 ЮВ 1
{2}
н/о н/о +15.7 +11.2 75 +17 +17 1016.8 949.1
03 19.07 ЮВ 1
{2}
н/о н/о +15.4 +11.3 77 +17 +17 1016.9 949.1
04 19.07 Ю 1
{1}
н/о н/о +15.0 +11.7 81 +16 +16 1017.0 949.1
05 19.07 СЗ 1
{1}
н/о н/о +14.8 +12.0 83 +16 +16 1017.3 949.3
06 19.07 штиль 0
{2}
н/о н/о +16.3 +11.7 74 +16 +16 1017.3 949.7 +14.3
07 19.07 В 1
{2}
н/о н/о +18.2 +11.1 63 +20 +20 1016.8 949.7
08 19.07 СЗ 1
{3}
н/о н/о +20.1 +12.0 60 +23 +23 комфорт 1016.3 949.6
09 19.07 З 1
{3}
н/о н/о +22.7 +13.2 55 +26 +26 жарко 1015.3 949.3
10 19.07 З 5
{7}
н/о н/о +23.4 +11.7 48 +26 +26 жарко 1015.0 949.2
11 19.07 СЗ 4
{7}
н/о н/о +24.4 +12.8 48 +26 +26 жарко 1014.4 948.8
12 19.07 З 4
{7}
20 км 3/3 1500 м
[]
+25.7 +12.6 44 +27 +35 жарко 1013.5 948.3
13 19.07 З 4
{7}
н/о н/о +26.2 +12.1 41 +28 +28 жарко 1013.1 948.0
14 19.07 З 4
{7}
н/о н/о +26.0 +13.7 47 +28 +28 жарко 1012.8 947.7
15 19.07 З 4
{7}
20 км 3/3 1500 м
[]
+26.3 +14.1 47 +29 +33 жарко 1012.5 947.5
16 19.07 З 4
{7}
н/о н/о +26.6 +14.9 49 +29 +29 жарко 1012.3 947.4
17 19.07 З 3
{6}
н/о н/о +25.6 +15.2 53 +29 +29 душно 1012.5 947.3
18 19.07 ЮЗ 3
{7}
20 км 3/3 1500 м
[]
+24.5 +14.3 53 +27 +27 жарко 1012.7 947.3 +27.0
19 19.07 ЮВ 2
{4}
н/о н/о +23.4 +14.6 58 +27 +27 душно 1013.4 947.7
20 19.07 ЮВ 2
{2}
н/о н/о +20.9 +14.4 66 +25 +25 комфорт 1014.8 948.4
21 19.07 В 1
{4}
18 км 3/0
[]
+19.6 +14.1 71 +22 +22 комфорт 1015.2 948.5
22 19.07 штиль 0
{2}
н/о н/о +18.3 +13.9 76 +19 +19 1015.9 948.8
23 19.07 ЮВ 1
{2}
н/о н/о +18.3 +13.5 74 +20 +20 1016.1 949.0
00 20.07 ЮВ 1
{4}
30 км 3/3 1500 м
[]
+16.8 +13.2 79 +18 +18 1016.0 948.6
01 20.07 штиль 0
{1}
н/о н/о +15.5 +13.2 86 +15 +15 1016.1 948.4
02 20.07 СЗ 1
{1}
н/о н/о +14.8 +13.1 90 +16 +16 1016.4 948.5
03 20.07 штиль 0
{2}
н/о н/о +13.9 +12.4 91 +13 +13 1016.9 948.7
04 20.07 СВ 1
{2}
н/о н/о +13.3 +11.9 91 +14 +14 1017.0 948.7
05 20.07 штиль 0
{2}
н/о н/о +13.4 +12.1 92 +13 +13 1017.2 948.9
06 20.07 СЗ 1
{2}
н/о н/о +16.2 +14.0 87 +18 +18 1016.5 948.9 +13.3
07 20.07 В 1
{2}
н/о н/о +19.5 +14.1 71 +22 +22 комфорт 1015.8 949.0
08 20.07 СЗ 1
{2}
н/о н/о +21.4 +14.2 64 +24 +24 комфорт 1015.4 949.1
09 20.07 З 1
{2}
25 км 8/0
[]
+23.2 +14.5 58 +27 +37 душно 1014.8 948.9
10 20.07 СЗ 2
{3}
н/о н/о +24.8 +16.1 58 +28 +28 жарко 1014.4 948.9
11 20.07 СЗ 3
{5}
н/о н/о +24.3 +15.6 58 +27 +27 жарко 1014.4 948.8
12 20.07 С 5
{7}
н/о н/о +25.3 +14.7 52 +28 +28 жарко 1014.4 949.0
13 20.07 ЮЗ 1
{6}
н/о н/о +24.7 +16.8 61 +28 +28 душно 1014.5 949.0

 

Местоположение метеостанции Майринген (Швейцария): широта 46.73 долгота 8.17 высота над уровнем моря 595 м.

В архиве по умолчанию представлена погода в Майрингене за последнюю неделю. Архивные данные за месяц целиком и за предыдущие месяцы, начиная с января 2011 года, Вы можете получить, выбрав интересующий диапазон дат из раскрывающегося списка и нажав кнопку "Ввод!".


*Определитесь, кто Вы:
робот инопланетянин человек

Внимание! Время в таблицах - всемирное. Для получения местного времени необходимо прибавить поправку, которая равна 1 ч.

Смотрите также архив погоды в соседних городах и на ближайших метеорологических станциях:

Погода в Бриенце (Швейцария) (8 км)
Погода в Гисвиле (Швейцария) (10 км)
Погода на Титлисе (Швейцария) (20 км)
Погода в Энгельберге (Швейцария) (22 км)
Погода на Гримзеле (Швейцария) (22 км)
Погода в Интерлакене (Швейцария) (24 км)
Погода на Юнгфрауйохе (Швейцария) (25 км)
Погода в Шюпфхайме (Швейцария) (27 км)
Погода в Улрихене (Швейцария) (28 км)
Погода на Пилатусе (Швейцария) (28 км)

Пояснения к столбцам:

Ветер - указаны скорость ветра в м/с - средняя за 10 мин, порывы в срок и между сроками (в фигурных скобках) и направление, откуда дует ветер: С - северный, СВ - северо-восточный, В - восточный, ЮВ - юго-восточный, Ю - южный, ЮЗ - юго-западный, З - западный, СЗ - северо-западный.
Видимость - горизонтальная дальность видимости в метрах или километрах. При видимости от 1 до 10 км при отсутствии осадков обычно наблюдается дымка, при ухудшении видимости до 1 км и менее - туман. В сухую погоду видимость может ухудшаться дымом, пылью или мглою.
Явления - указаны атмосферные явления, наблюдавшиеся в срок или в последний час перед сроком; фигурными скобками обозначены явления, наблюдавшиеся между сроками (за 1-3 часа до срока); квадратными скобками обозначены град или гололедные отложения с указанием их диаметра в мм.
Облачность - указаны через наклонную черту общая и нижняя облачность в баллах и высота нижней границы облаков в метрах; квадратными скобками обозначены формы облаков: Ci - перистые, Cs - перисто-слоистые, Cc - перисто-кучевые, Ac - высококучевые, As - высокослоистые, Sc - слоисто-кучевые, Ns - слоисто-дождевые, Cu - кучевые, Cb - кучево-дождевые. Подробнее классификацию облаков см. в Атласе облаков (PDF).
T - Температура воздуха - температура, измеренная на высоте 2 м над землей.
Td - Температура точки росы - температура, при понижении до которой содержащийся в воздухе водяной пар достигнет насыщения.
f - Относительная влажность воздуха - влажноcть воздуха, измеренная на высоте 2 м над землей.
Te - Эффективная температура - температура, которую ощущает одетый по сезону человек в тени. Характеристика душности погоды. При расчете учитывается влияние влажности воздуха и скорости ветра на теплоощущения человека.
Tes - Эффективная температура на солнце - температура, которую ощущает человек, с поправкой на солнечный нагрев. Характеристика знойности погоды. Зависит от высоты солнца над горизонтом, облачности и скорости ветра. Ночью, в пасмурную погоду, а также при ветре 12 м/с и более поправка равна нулю.
P - Атмосферное давление - приведенное к уровню моря атмосферное давление.
Po - Атмосферное давление - измеренное на уровне метеостанции атмосферное давление.
Tmin - Минимальная температура - минимум температуры воздуха на высоте 2 м над землей.
Tmax - Максимальная температура - максимум температуры воздуха на высоте 2 м над землей.
R - Количество осадков - Количество выпавших осадков за период времени, мм. При наведении курсора мыши на число - период времени, за который выпало указанное количество осадков.
R24 - Количество осадков - Количество выпавших осадков за 24 часа, мм.
S - Снежный покров - Высота снежного покрова, см. При наведении курсора мыши на число - состояние снежного покрова и степень покрытия местности в баллах.